SCP
0 0 -0 0 0 -0 -0 -0 0 0 0 0 0 0 0 0 0 0 0 0 0 0 0 0 0 0 0 0 0 0 0 0 0 0 0 -0 0 0 0 0 0 0 0 0 0
-0 -0 -0 -0 -0 -0 -0 -0 0 0 0 0 0 0 0 0 0 0 0 0 0 0 0 0 0 0 0 0 0 0 0 -0 0 -0 0 0 0 0 0 0 0 0 0 0 0
-0 -0 -0 -0 -0 -0 -0 0 0 0 0 0 0 0 0 0 0 0 0 0 0 0 0 0 0 0 0 0 0 0 0 0 0 0 -0 -0 -0 -0 -0 -0 -0 0 0 0 0
-0 -0 -0 -0 -0 -0 -0 -0 0 0 0 0 0 0 0 0 0 0 0 0 0 0 0 0 0 0 0 0 0 0 0 0 0 0 0 0 0 0 0 0 0 0 0 0 0
-0 -0 -0 -0 -0 -0 -0 -0 0 0 0 0 0 0 0 0 0 0 0 0 0 0 0 0 0 0 0 0 0 0 0 0 0 0 0 0 0 0 0 -0 0 0 0 0 0
-0 -0 -0 -0 -0 -0 -0 -0 -0 0 0 0 0 0 0 0 0 0 0 0 0 0 0 0 0 0 0 0 0 0 0 0 0 0 0 0 0 0 0 -0 0 0 0 0 0
-0 -0 -0 -0 -0 -0 -0 -0 -0 0 0 0 0 0 0 0 0 0 0 0 0 0 0 0 0 0 0 0 0 0 0 0 0 0 0 0 0 0 0 0 0 -0 -0 0 -0
-0 -0 -0 -0 -0 -0 -0 -0 -0 0 0 0 0 0 0 0 0 0 0 0 0 0 0 0 0 0 0 0 0 0 0 0 0 0 0 0 0 0 0 0 0 0 -0 0 0
-0 -0 -0 -0 -0 -0 -0 -0 0 0 0 0 0 0 0 0 0 0 0 0 0 0 0 0 0 0 0 0 0 0 0 0 0 0 0 0 0 0 0 0 0 -0 -0 -0 0
-0 -0 -0 -0 -0 -0 -0 0 0 0 0 0 0 0 0 0 0 0 0 0 0 0 0 0 0 0 0 0 0 0 0 0 0 0 0 0 0 0 0 0 0 -0 -0 -0 -0
-0 -0 -0 -0 -0 -0 -0 0 0 0 0 0 0 0 0 -0 0 0 0 0 0 0 0 0 0 0 0 0 0 0 0 0 0 0 0 0 0 0 0 0 0 0 0 0 -0
0 -0 -0 -0 0 -0 -0 0 0 0 0 0 0 0 0 -0 0 0 0 0 0 0 0 0 0 0 0 0 0 0 0 0 0 0 0 0 0 0 0 0 0 0 0 0 0
0 0 -0 0 0 0 0 0 0 0 0 0 0 0 0 0 0 0 0 0 0 0 0 0 0 0 0 0 0 0 0 0 0 0 0 0 0 0 0 0 0 0 0 -0 -0
0 0 0 0 0 0 0 0 0 0 0 0 0 0 0 0 0 0 0 0 0 0 0 0 0 0 0 0 0 0 0 0 0 0 0 0 0 0 0 0 0 0 0 0 0
0 0 0 0 0 0 0 0 0 0 0 0 0 0 0 0 0 0 0 0 0 0 0 0 0 0 0 0 0 0 0 0 0 0 0 0 0 0 0 0 0 0 0 0 0
0 0 0 0 0 0 0 0 0 0 0 0 0 0 0 0 0 0 0 0 0 0 0 0 0 0 0 0 0 0 0 0 0 0 0 0 0 0 0 0 0 0 0 0 0
0 0 0 0 0 0 0 0 0 0 0 0 0 0 0 0 0 0 0 0 0 0 0 0 0 0 0 0 0 0 0 0 0 0 0 0 0 0 0 0 0 0 0 0 0
0 0 0 0 0 0 0 0 0 0 0 0 0 0 0 0 0 0 0 0 0 0 0 0 0 0 0 0 0 0 0 0 0 0 0 0 0 0 0 0 0 0 0 0 0
0 0 0 0 0 0 0 0 0 0 0 0 0 0 0 0 0 0 0 0 0 0 0 0 0 0 0 0 0 0 0 0 0 0 0 0 0 0 0 0 0 0 0 0 0
0 0 0 0 0 0 0 0 0 0 0 0 0 0 0 0 0 0 0 0 0 0 0 0 0 0 0 0 0 0 0 0 0 0 0 0 0 0 0 0 0 0 -0 -0 0
0 0 0 0 0 0 0 0 0 0 0 0 0 0 0 0 0 0 0 0 0 0 0 0 0 0 0 0 0 0 0 0 0 0 0 0 0 0 0 0 -0 -0 -0 0 0
0 0 0 0 0 0 0 0 0 0 0 0 0 0 0 0 0 0 0 0 0 0 0 0 0 0 0 0 0 0 0 0 0 0 0 0 0 0 -0 0 0 0 0 0 0
0 0 0 0 0 0 0 0 0 0 0 0 0 0 0 0 0 0 0 0 0 0 0 0 0 0 0 0 0 0 0 0 0 0 0 0 0 0 0 0 0 0 0 0 0
0 0 0 0 0 0 0 0 0 0 0 0 0 0 0 0 0 0 0 0 0 0 0 0 0 0 0 0 0 0 0 0 0 0 0 0 0 0 0 0 0 0 0 0 0
0 0 0 0 0 0 0 0 0 0 0 0 0 0 0 0 0 0 0 0 0 0 0 0 0 0 0 0 0 0 0 0 0 0 0 0 0 0 0 0 0 0 0 0 0
0 0 0 0 0 0 0 0 0 0 0 0 0 0 0 0 0 0 0 0 0 0 0 0 0 0 0 0 0 0 0 0 0 0 0 0 0 0 0 0 0 0 0 0 0
0 0 0 0 0 0 0 0 0 0 0 0 0 0 0 0 0 0 0 0 0 0 0 0 0 0 0 0 0 0 0 0 0 0 0 0 0 0 0 0 0 0 0 0 0
Wind_Speed_500mb
22 25 26 26 25 26 29 31 31 36 41 43 44 20 7 17 40 65 87 56 54 60 43 35 35 18 24 34 30 16 8 8 8 4 5 2 4 6 5 4 5 6 12 11 10
15 18 20 23 25 27 27 27 29 34 39 41 39 31 11 9 23 72 60 46 47 50 51 31 40 52 42 26 21 27 10 10 12 7 5 4 3 3 2 6 7 12 14 13 15
9 12 15 18 22 30 30 29 25 29 36 35 37 37 21 11 8 40 55 50 51 39 30 27 33 61 50 46 24 18 9 4 6 2 5 7 6 5 5 10 21 16 20 16 18
6 8 11 16 21 31 33 32 25 26 29 31 32 21 38 26 7 33 44 49 51 30 30 38 27 15 23 24 26 15 22 14 7 8 10 8 8 9 17 9 12 18 18 21 21
4 6 7 10 18 24 28 27 25 25 26 28 26 23 21 23 16 29 37 44 44 47 33 23 32 34 15 24 36 18 13 12 7 5 4 4 14 13 25 25 19 20 20 21 22
5 5 7 9 12 17 25 25 24 25 25 23 18 26 17 12 20 29 34 34 43 46 45 40 20 32 28 13 11 22 29 18 9 4 4 8 8 11 7 17 18 19 24 26 24
10 9 9 11 12 16 24 27 24 24 27 22 18 8 28 16 23 27 33 33 32 37 38 37 26 12 8 7 26 26 11 14 16 9 5 5 9 14 15 17 17 22 24 27 32
10 11 12 12 10 17 25 28 24 21 27 16 17 14 10 21 24 33 28 23 25 27 23 25 26 24 11 17 6 10 9 7 7 13 13 6 12 10 15 20 22 25 27 28 31
10 12 13 14 16 24 30 30 23 15 22 13 14 9 6 15 27 32 33 28 18 19 24 19 14 8 10 8 3 5 9 10 10 7 5 7 10 16 25 25 24 27 29 31 31
11 13 15 16 18 23 25 29 21 7 20 8 11 5 12 16 22 30 32 21 17 18 17 13 3 6 15 20 7 11 11 12 14 5 5 15 29 26 37 34 34 29 29 32 35
13 14 15 17 18 19 21 14 12 6 25 13 11 5 12 22 12 28 32 18 23 9 9 14 12 9 9 12 13 14 11 15 8 7 15 12 18 17 36 39 36 38 34 35 36
12 13 14 16 17 20 22 11 12 7 4 13 11 10 12 21 14 25 28 13 13 8 23 4 8 9 13 11 12 13 17 12 9 4 11 15 32 25 22 33 46 41 40 39 36
11 14 16 16 12 14 17 18 16 14 3 4 8 4 6 10 6 18 24 12 10 12 16 11 5 11 8 10 17 6 7 9 10 21 2 18 8 3 4 21 39 44 44 42 43
14 16 17 16 6 13 9 15 18 16 3 0 1 3 8 8 1 12 17 10 4 9 9 7 2 7 9 3 9 8 9 16 16 16 6 13 8 6 6 15 18 41 52 56 52
13 12 13 13 11 10 10 14 18 3 6 4 1 6 7 5 6 3 12 7 4 4 3 3 3 5 5 2 6 7 10 8 8 11 5 12 5 12 5 11 22 40 57 60 60
12 12 11 11 10 11 12 15 6 10 9 1 3 4 6 3 2 9 4 5 5 3 5 6 1 7 11 6 5 19 13 12 5 2 6 6 7 12 6 8 4 16 62 64 64
6 8 9 10 10 11 13 9 10 7 8 6 1 4 2 5 2 6 4 4 3 7 3 7 5 4 4 8 5 7 9 7 10 8 7 9 5 20 14 15 12 10 19 50 55
6 8 9 9 10 10 9 6 3 5 10 1 3 5 2 8 2 5 7 6 5 1 3 1 9 1 3 4 3 6 4 6 8 6 9 4 10 11 3 12 7 10 11 13 44
13 16 16 11 8 4 4 6 11 10 5 7 2 2 2 2 2 5 6 3 7 6 2 7 6 5 5 4 5 3 2 1 4 3 5 8 13 24 5 6 14 10 13 24 29
18 20 30 19 17 7 7 9 7 4 5 2 3 8 6 6 1 3 5 4 7 5 1 1 8 1 4 2 1 2 2 1 4 7 9 8 6 12 11 16 19 22 23 24 25
20 10 13 8 14 9 6 12 6 3 4 3 5 7 8 1 3 2 8 3 6 4 1 3 5 2 3 13 12 2 3 2 2 5 7 6 10 11 7 5 13 24 29 30 29
22 6 14 18 5 3 7 12 7 7 6 7 4 7 9 1 8 11 13 7 8 6 3 4 6 7 9 8 6 6 4 11 7 11 6 5 13 30 16 11 13 29 65 75 76
17 20 23 32 7 5 5 6 6 8 10 9 9 9 4 9 4 12 4 11 9 10 6 4 3 9 8 5 7 5 6 5 7 2 12 9 18 6 24 34 55 63 81 73 77
25 3 12 30 14 10 9 7 6 6 3 4 0 3 2 6 5 3 6 3 8 7 5 2 3 13 21 23 4 6 10 10 13 7 21 32 67 33 46 48 51 69 78 89 87
31 12 16 8 11 11 15 12 8 7 4 5 6 5 2 5 9 3 5 3 8 5 3 5 9 11 18 23 20 28 23 20 29 28 22 65 57 54 54 52 74 82 83 80 77
30 18 15 9 13 17 10 11 12 6 7 1 6 5 3 6 5 5 5 6 10 3 8 2 7 4 11 21 33 39 19 32 41 44 45 52 67 45 82 67 54 58 65 70 68
42 28 18 23 14 10 11 11 14 22 15 9 12 10 10 8 12 11 10 12 20 6 8 6 4 1 13 4 16 19 23 38 13 3 17 25 41 38 38 45 59 49 54 62 58
Wind_Direction_500mb
82 61 60 55 46 38 32 29 28 31 31 27 27 25 359 16 22 25 32 12 16 22 31 36 39 58 55 34 26 352 90 61 36 43 104 260 290 359 338 301 262 215 219 231 224
87 60 53 46 41 30 22 19 23 26 22 25 26 25 16 11 20 28 22 15 20 29 22 25 47 67 60 32 23 21 65 31 346 352 126 189 233 239 305 300 270 241 248 232 196
77 44 40 36 30 22 19 15 17 18 18 21 23 27 42 41 16 7 15 23 27 34 21 42 66 60 69 52 24 25 63 183 354 354 140 188 244 240 208 239 232 212 218 226 207
57 32 28 25 21 18 17 14 16 16 15 19 24 34 42 35 42 356 12 23 24 40 48 56 57 50 76 84 51 79 37 19 341 2 331 342 293 275 220 250 261 233 231 229 218
38 27 19 15 18 16 16 18 16 11 12 14 25 31 57 40 29 11 16 24 30 30 38 41 45 73 67 113 96 103 146 98 86 29 358 306 287 255 250 244 232 220 218 225 226
16 350 352 351 359 9 9 6 4 5 6 11 27 44 42 71 22 21 20 27 32 31 36 47 51 83 78 72 36 142 139 155 179 176 265 294 287 336 300 218 223 226 223 218 221
8 351 334 332 339 349 356 355 352 358 360 1 13 13 45 48 23 14 11 21 26 31 39 63 48 28 73 93 137 161 126 171 181 173 209 245 237 234 263 222 233 239 239 237 224
10 1 347 336 339 339 344 345 343 349 352 359 14 56 73 25 16 14 13 12 13 26 40 58 54 49 53 106 178 259 217 136 149 176 129 110 289 165 193 194 233 249 247 248 241
4 1 354 346 337 334 337 339 339 343 359 14 33 77 27 5 8 9 12 7 11 27 40 38 47 81 149 205 199 332 351 359 142 155 163 169 277 146 183 196 242 252 245 244 246
1 359 353 342 340 338 340 336 340 15 6 11 28 53 24 345 347 360 3 7 22 11 358 359 319 49 26 25 39 334 342 331 349 95 275 266 257 262 186 203 223 242 243 245 245
345 349 350 343 340 341 347 348 359 2 24 52 11 37 342 350 359 2 0 12 353 40 15 349 42 44 15 7 320 279 274 296 4 93 320 272 266 262 192 201 223 230 233 235 243
333 343 347 348 345 355 360 35 40 352 30 28 26 13 355 3 359 345 1 19 8 2 342 3 56 20 317 274 295 292 316 11 294 96 307 300 293 265 221 205 211 225 231 231 231
336 345 351 352 352 356 5 11 9 12 308 352 22 22 351 6 10 345 9 25 17 23 4 60 27 328 316 337 354 59 14 1 301 309 305 302 273 278 235 195 213 227 230 229 227
331 341 345 352 2 352 1 347 345 354 349 338 67 341 343 350 232 355 13 28 96 37 12 67 8 319 313 75 349 319 22 323 325 355 335 8 282 296 174 229 205 222 226 228 228
309 323 336 345 340 344 336 328 332 11 6 84 56 322 339 33 323 15 7 42 62 55 324 264 307 336 296 41 330 287 344 298 299 322 53 342 54 259 104 239 233 224 227 229 226
294 301 315 325 324 335 329 322 335 43 258 37 350 325 311 350 305 318 358 47 127 162 43 82 11 335 355 309 248 298 292 202 229 228 6 234 93 287 208 206 167 208 224 226 225
320 325 320 320 319 331 338 338 29 140 353 309 352 16 354 338 322 355 306 223 199 13 255 153 117 76 353 304 224 276 314 335 350 5 228 97 338 248 281 276 226 242 237 225 226
293 321 330 329 311 331 352 51 137 230 223 16 296 234 329 11 220 311 290 293 40 273 308 255 320 16 318 55 278 355 24 131 291 308 291 4 245 258 288 305 261 299 246 252 230
298 305 299 279 299 309 55 66 216 216 94 143 200 271 174 174 241 340 251 292 57 235 237 342 221 139 47 337 358 349 354 326 103 114 62 248 284 305 358 33 359 254 277 266 255
287 307 296 281 245 191 83 229 246 14 99 49 271 204 239 182 272 20 270 132 140 53 67 120 299 272 120 228 120 312 329 56 345 325 287 259 278 236 340 5 357 356 332 303 286
284 308 267 238 174 161 178 224 259 162 204 292 314 312 287 326 190 221 279 349 13 115 51 81 126 228 142 203 188 79 197 355 5 172 224 320 263 221 9 348 313 318 336 334 336
256 229 242 187 133 147 178 194 195 192 206 228 249 237 222 287 232 221 231 208 59 151 68 4 170 254 221 58 54 82 120 166 140 274 248 197 261 284 283 316 296 324 322 318 316
231 226 221 190 168 224 266 262 241 184 196 184 229 235 326 211 293 231 155 25 35 38 77 323 292 330 312 64 13 136 174 236 100 165 186 245 256 283 318 312 304 305 300 305 310
236 242 187 193 196 174 158 214 216 200 160 177 280 302 184 246 236 279 23 106 55 90 113 354 242 189 258 271 357 170 199 204 172 202 265 245 277 268 275 280 292 290 300 303 302
216 222 181 184 230 202 178 145 162 175 109 99 46 66 139 12 336 279 16 52 75 115 90 133 222 236 254 272 282 268 270 245 213 235 234 271 266 280 281 284 284 289 290 293 296
215 171 167 146 128 153 172 199 173 125 129 273 123 177 328 208 204 314 64 198 234 169 166 40 270 358 285 254 263 282 273 263 258 252 256 261 271 273 280 286 293 288 286 285 289
205 196 179 157 139 146 191 170 181 158 203 196 190 186 211 248 313 303 293 282 258 235 181 167 199 51 270 30 329 292 232 243 252 242 226 256 271 288 298 301 298 320 320 317 311
Wind_Speed_850mb
22 25 26 26 25 26 29 31 31 36 41 43 44 20 7 17 40 65 87 56 54 60 43 35 35 18 24 34 30 16 8 8 8 4 5 2 4 6 5 4 5 6 12 11 10
15 18 20 23 25 27 27 27 29 34 39 41 39 31 11 9 23 72 60 46 47 50 51 31 40 52 42 26 21 27 10 10 12 7 5 4 3 3 2 6 7 12 14 13 15
9 12 15 18 22 30 30 29 25 29 36 35 37 37 21 11 8 40 55 50 51 39 30 27 33 61 50 46 24 18 9 4 6 2 5 7 6 5 5 10 21 16 20 16 18
6 8 11 16 21 31 33 32 25 26 29 31 32 21 38 26 7 33 44 49 51 30 30 38 27 15 23 24 26 15 22 14 7 8 10 8 8 9 17 9 12 18 18 21 21
4 6 7 10 18 24 28 27 25 25 26 28 26 23 21 23 16 29 37 44 44 47 33 23 32 34 15 24 36 18 13 12 7 5 4 4 14 13 25 25 19 20 20 21 22
5 5 7 9 12 17 25 25 24 25 25 23 18 26 17 12 20 29 34 34 43 46 45 40 20 32 28 13 11 22 29 18 9 4 4 8 8 11 7 17 18 19 24 26 24
10 9 9 11 12 16 24 27 24 24 27 22 18 8 28 16 23 27 33 33 32 37 38 37 26 12 8 7 26 26 11 14 16 9 5 5 9 14 15 17 17 22 24 27 32
10 11 12 12 10 17 25 28 24 21 27 16 17 14 10 21 24 33 28 23 25 27 23 25 26 24 11 17 6 10 9 7 7 13 13 6 12 10 15 20 22 25 27 28 31
10 12 13 14 16 24 30 30 23 15 22 13 14 9 6 15 27 32 33 28 18 19 24 19 14 8 10 8 3 5 9 10 10 7 5 7 10 16 25 25 24 27 29 31 31
11 13 15 16 18 23 25 29 21 7 20 8 11 5 12 16 22 30 32 21 17 18 17 13 3 6 15 20 7 11 11 12 14 5 5 15 29 26 37 34 34 29 29 32 35
13 14 15 17 18 19 21 14 12 6 25 13 11 5 12 22 12 28 32 18 23 9 9 14 12 9 9 12 13 14 11 15 8 7 15 12 18 17 36 39 36 38 34 35 36
12 13 14 16 17 20 22 11 12 7 4 13 11 10 12 21 14 25 28 13 13 8 23 4 8 9 13 11 12 13 17 12 9 4 11 15 32 25 22 33 46 41 40 39 36
11 14 16 16 12 14 17 18 16 14 3 4 8 4 6 10 6 18 24 12 10 12 16 11 5 11 8 10 17 6 7 9 10 21 2 18 8 3 4 21 39 44 44 42 43
14 16 17 16 6 13 9 15 18 16 3 0 1 3 8 8 1 12 17 10 4 9 9 7 2 7 9 3 9 8 9 16 16 16 6 13 8 6 6 15 18 41 52 56 52
13 12 13 13 11 10 10 14 18 3 6 4 1 6 7 5 6 3 12 7 4 4 3 3 3 5 5 2 6 7 10 8 8 11 5 12 5 12 5 11 22 40 57 60 60
12 12 11 11 10 11 12 15 6 10 9 1 3 4 6 3 2 9 4 5 5 3 5 6 1 7 11 6 5 19 13 12 5 2 6 6 7 12 6 8 4 16 62 64 64
6 8 9 10 10 11 13 9 10 7 8 6 1 4 2 5 2 6 4 4 3 7 3 7 5 4 4 8 5 7 9 7 10 8 7 9 5 20 14 15 12 10 19 50 55
6 8 9 9 10 10 9 6 3 5 10 1 3 5 2 8 2 5 7 6 5 1 3 1 9 1 3 4 3 6 4 6 8 6 9 4 10 11 3 12 7 10 11 13 44
13 16 16 11 8 4 4 6 11 10 5 7 2 2 2 2 2 5 6 3 7 6 2 7 6 5 5 4 5 3 2 1 4 3 5 8 13 24 5 6 14 10 13 24 29
18 20 30 19 17 7 7 9 7 4 5 2 3 8 6 6 1 3 5 4 7 5 1 1 8 1 4 2 1 2 2 1 4 7 9 8 6 12 11 16 19 22 23 24 25
20 10 13 8 14 9 6 12 6 3 4 3 5 7 8 1 3 2 8 3 6 4 1 3 5 2 3 13 12 2 3 2 2 5 7 6 10 11 7 5 13 24 29 30 29
22 6 14 18 5 3 7 12 7 7 6 7 4 7 9 1 8 11 13 7 8 6 3 4 6 7 9 8 6 6 4 11 7 11 6 5 13 30 16 11 13 29 65 75 76
17 20 23 32 7 5 5 6 6 8 10 9 9 9 4 9 4 12 4 11 9 10 6 4 3 9 8 5 7 5 6 5 7 2 12 9 18 6 24 34 55 63 81 73 77
25 3 12 30 14 10 9 7 6 6 3 4 0 3 2 6 5 3 6 3 8 7 5 2 3 13 21 23 4 6 10 10 13 7 21 32 67 33 46 48 51 69 78 89 87
31 12 16 8 11 11 15 12 8 7 4 5 6 5 2 5 9 3 5 3 8 5 3 5 9 11 18 23 20 28 23 20 29 28 22 65 57 54 54 52 74 82 83 80 77
30 18 15 9 13 17 10 11 12 6 7 1 6 5 3 6 5 5 5 6 10 3 8 2 7 4 11 21 33 39 19 32 41 44 45 52 67 45 82 67 54 58 65 70 68
42 28 18 23 14 10 11 11 14 22 15 9 12 10 10 8 12 11 10 12 20 6 8 6 4 1 13 4 16 19 23 38 13 3 17 25 41 38 38 45 59 49 54 62 58
Wind_Direction_850mb
82 61 60 55 46 38 32 29 28 31 31 27 27 25 359 16 22 25 32 12 16 22 31 36 39 58 55 34 26 352 90 61 36 43 104 260 290 359 338 301 262 215 219 231 224
87 60 53 46 41 30 22 19 23 26 22 25 26 25 16 11 20 28 22 15 20 29 22 25 47 67 60 32 23 21 65 31 346 352 126 189 233 239 305 300 270 241 248 232 196
77 44 40 36 30 22 19 15 17 18 18 21 23 27 42 41 16 7 15 23 27 34 21 42 66 60 69 52 24 25 63 183 354 354 140 188 244 240 208 239 232 212 218 226 207
57 32 28 25 21 18 17 14 16 16 15 19 24 34 42 35 42 356 12 23 24 40 48 56 57 50 76 84 51 79 37 19 341 2 331 342 293 275 220 250 261 233 231 229 218
38 27 19 15 18 16 16 18 16 11 12 14 25 31 57 40 29 11 16 24 30 30 38 41 45 73 67 113 96 103 146 98 86 29 358 306 287 255 250 244 232 220 218 225 226
16 350 352 351 359 9 9 6 4 5 6 11 27 44 42 71 22 21 20 27 32 31 36 47 51 83 78 72 36 142 139 155 179 176 265 294 287 336 300 218 223 226 223 218 221
8 351 334 332 339 349 356 355 352 358 360 1 13 13 45 48 23 14 11 21 26 31 39 63 48 28 73 93 137 161 126 171 181 173 209 245 237 234 263 222 233 239 239 237 224
10 1 347 336 339 339 344 345 343 349 352 359 14 56 73 25 16 14 13 12 13 26 40 58 54 49 53 106 178 259 217 136 149 176 129 110 289 165 193 194 233 249 247 248 241
4 1 354 346 337 334 337 339 339 343 359 14 33 77 27 5 8 9 12 7 11 27 40 38 47 81 149 205 199 332 351 359 142 155 163 169 277 146 183 196 242 252 245 244 246
1 359 353 342 340 338 340 336 340 15 6 11 28 53 24 345 347 360 3 7 22 11 358 359 319 49 26 25 39 334 342 331 349 95 275 266 257 262 186 203 223 242 243 245 245
345 349 350 343 340 341 347 348 359 2 24 52 11 37 342 350 359 2 0 12 353 40 15 349 42 44 15 7 320 279 274 296 4 93 320 272 266 262 192 201 223 230 233 235 243
333 343 347 348 345 355 360 35 40 352 30 28 26 13 355 3 359 345 1 19 8 2 342 3 56 20 317 274 295 292 316 11 294 96 307 300 293 265 221 205 211 225 231 231 231
336 345 351 352 352 356 5 11 9 12 308 352 22 22 351 6 10 345 9 25 17 23 4 60 27 328 316 337 354 59 14 1 301 309 305 302 273 278 235 195 213 227 230 229 227
331 341 345 352 2 352 1 347 345 354 349 338 67 341 343 350 232 355 13 28 96 37 12 67 8 319 313 75 349 319 22 323 325 355 335 8 282 296 174 229 205 222 226 228 228
309 323 336 345 340 344 336 328 332 11 6 84 56 322 339 33 323 15 7 42 62 55 324 264 307 336 296 41 330 287 344 298 299 322 53 342 54 259 104 239 233 224 227 229 226
294 301 315 325 324 335 329 322 335 43 258 37 350 325 311 350 305 318 358 47 127 162 43 82 11 335 355 309 248 298 292 202 229 228 6 234 93 287 208 206 167 208 224 226 225
320 325 320 320 319 331 338 338 29 140 353 309 352 16 354 338 322 355 306 223 199 13 255 153 117 76 353 304 224 276 314 335 350 5 228 97 338 248 281 276 226 242 237 225 226
293 321 330 329 311 331 352 51 137 230 223 16 296 234 329 11 220 311 290 293 40 273 308 255 320 16 318 55 278 355 24 131 291 308 291 4 245 258 288 305 261 299 246 252 230
298 305 299 279 299 309 55 66 216 216 94 143 200 271 174 174 241 340 251 292 57 235 237 342 221 139 47 337 358 349 354 326 103 114 62 248 284 305 358 33 359 254 277 266 255
287 307 296 281 245 191 83 229 246 14 99 49 271 204 239 182 272 20 270 132 140 53 67 120 299 272 120 228 120 312 329 56 345 325 287 259 278 236 340 5 357 356 332 303 286
284 308 267 238 174 161 178 224 259 162 204 292 314 312 287 326 190 221 279 349 13 115 51 81 126 228 142 203 188 79 197 355 5 172 224 320 263 221 9 348 313 318 336 334 336
256 229 242 187 133 147 178 194 195 192 206 228 249 237 222 287 232 221 231 208 59 151 68 4 170 254 221 58 54 82 120 166 140 274 248 197 261 284 283 316 296 324 322 318 316
231 226 221 190 168 224 266 262 241 184 196 184 229 235 326 211 293 231 155 25 35 38 77 323 292 330 312 64 13 136 174 236 100 165 186 245 256 283 318 312 304 305 300 305 310
236 242 187 193 196 174 158 214 216 200 160 177 280 302 184 246 236 279 23 106 55 90 113 354 242 189 258 271 357 170 199 204 172 202 265 245 277 268 275 280 292 290 300 303 302
216 222 181 184 230 202 178 145 162 175 109 99 46 66 139 12 336 279 16 52 75 115 90 133 222 236 254 272 282 268 270 245 213 235 234 271 266 280 281 284 284 289 290 293 296
215 171 167 146 128 153 172 199 173 125 129 273 123 177 328 208 204 314 64 198 234 169 166 40 270 358 285 254 263 282 273 263 258 252 256 261 271 273 280 286 293 288 286 285 289
205 196 179 157 139 146 191 170 181 158 203 196 190 186 211 248 313 303 293 282 258 235 181 167 199 51 270 30 329 292 232 243 252 242 226 256 271 288 298 301 298 320 320 317 311